Midlothian, TX

5:14 AM CDT on August 20, 2017 (GMT -0500)
Midlothian

Weather History for KJWY - October, 2012

Change the Weather History Date:

Thursday, October 18, 2012

  Actual Average (KRBD) Record (KRBD)
Temperature  
Mean Temperature 62 °F -  
Max Temperature 73 °F 74 °F 91 °F (2004)
Min Temperature 50 °F 54 °F 46 °F (1996)
Degree Days  
Heating Degree Days 4    
Growing Degree Days 12 (Base 50)    
Moisture  
Dew Point 30 °F    
Average Humidity 32    
Maximum Humidity 59    
Minimum Humidity 14    
Precipitation  
Precipitation 0.00 in - - ()
Sea Level Pressure  
Sea Level Pressure 29.95 in    
Wind  
Wind Speed 6 mph (North)    
Max Wind Speed 10 mph    
Max Gust Speed 18 mph    
Visibility 10 miles    
Events      
Averages and records for this station are not official NWS values.
T = Trace of Precipitation, MM = Missing Value Source: NWS Daily Summary

Daily Weather History Graph

Daily Weather History Graph

Search for Another Location

Airport or City:

Trip Planner

Search our weather history database for the weather conditions in past years. The results will help you decide how hot, cold, wet, or windy it might be!

Date:

Astronomy

Oct. 18, 2012 Rise Set
Actual Time 7:34 AM CDT 6:50 PM CDT
Civil Twilight 7:09 AM CDT 7:15 PM CDT
Nautical Twilight 6:40 AM CDT 7:44 PM CDT
Astronomical Twilight 6:12 AM CDT 8:12 PM CDT
Moon 11:05 AM CDT (10/18) 9:38 PM CDT (10/18)
Length of Visible Light 12h 06m
Length of Day
11h 16m
Waxing Crescent, 14% of the Moon is Illuminated
Oct 18
Waxing Crescent
Oct 21
First Quarter
Oct 29
Full
Nov 6
Last Quarter
Nov 13
New

Hourly Weather History & Observations

Time (CDT) Temp. Dew Point Humidity Pressure Visibility Wind Dir Wind Speed Gust Speed Precip Events Conditions
12:15 AM 62.6 °F 42.8 °F 48% 29.81 in 10.0 mi North 8.1 mph - N/A   Clear
12:35 AM 64.4 °F 42.8 °F 45% 29.80 in 10.0 mi North 6.9 mph - N/A   Clear
1:15 AM 62.6 °F 42.8 °F 48% 29.81 in 10.0 mi North 6.9 mph - N/A   Clear
1:55 AM 60.8 °F 42.8 °F 52% 29.84 in 10.0 mi North 5.8 mph - N/A   Clear
2:15 AM 59.0 °F 44.6 °F 59% 29.85 in 10.0 mi North 9.2 mph - N/A   Clear
2:55 AM 62.6 °F 33.8 °F 34% 29.86 in 10.0 mi NNE 8.1 mph 18.4 mph N/A   Clear
3:15 AM 62.6 °F 32.0 °F 32% 29.86 in 10.0 mi NNE 6.9 mph - N/A   Clear
3:35 AM 62.6 °F 30.2 °F 30% 29.87 in 10.0 mi NNE 9.2 mph - N/A   Clear
3:55 AM 60.8 °F 30.2 °F 31% 29.87 in 10.0 mi NNE 5.8 mph - N/A   Clear
4:15 AM 60.8 °F 30.2 °F 31% 29.88 in 10.0 mi NNE 4.6 mph - N/A   Clear
4:35 AM 59.0 °F 30.2 °F 34% 29.89 in 10.0 mi NE 3.5 mph - N/A   Clear
4:55 AM 59.0 °F 30.2 °F 34% 29.90 in 10.0 mi Calm Calm - N/A   Clear
5:15 AM 57.2 °F 30.2 °F 36% 29.90 in 10.0 mi NNE 3.5 mph - N/A   Clear
5:35 AM 55.4 °F 32.0 °F 41% 29.91 in 10.0 mi North 4.6 mph - N/A   Clear
5:55 AM 55.4 °F 32.0 °F 41% 29.92 in 10.0 mi North 3.5 mph - N/A   Clear
6:35 AM 53.6 °F 32.0 °F 44% 29.93 in 10.0 mi North 4.6 mph - N/A   Clear
6:55 AM 53.6 °F 30.2 °F 41% 29.93 in 10.0 mi North 3.5 mph - N/A   Clear
7:15 AM 53.6 °F 32.0 °F 44% 29.94 in 10.0 mi North 5.8 mph - N/A   Clear
7:35 AM 51.8 °F 33.8 °F 50% 29.95 in 10.0 mi North 4.6 mph - N/A   Clear
7:55 AM 50.0 °F 33.8 °F 54% 29.95 in 10.0 mi North 5.8 mph - N/A   Clear
8:15 AM 53.6 °F 32.0 °F 44% 29.96 in 10.0 mi North 4.6 mph - N/A   Clear
8:35 AM 55.4 °F 32.0 °F 41% 29.97 in 10.0 mi North 6.9 mph - N/A   Clear
9:15 AM 60.8 °F 32.0 °F 34% 29.99 in 10.0 mi NNE 6.9 mph - N/A   Clear
9:35 AM 62.6 °F 32.0 °F 32% 30.01 in 10.0 mi NNE 5.8 mph - N/A   Clear
9:55 AM 62.6 °F 32.0 °F 32% 30.02 in 10.0 mi NNE 6.9 mph - N/A   Clear
10:15 AM 66.2 °F 32.0 °F 28% 30.03 in 10.0 mi NE 6.9 mph - N/A   Clear
10:35 AM 68.0 °F 32.0 °F 26% 30.03 in 10.0 mi NE 8.1 mph - N/A   Clear
11:15 AM 69.8 °F 28.4 °F 21% 30.03 in 10.0 mi NE 8.1 mph - N/A   Clear
11:35 AM 69.8 °F 28.4 °F 21% 30.03 in 10.0 mi NE 10.4 mph - N/A   Clear
11:55 AM 71.6 °F 28.4 °F 20% 30.03 in 10.0 mi NE 8.1 mph - N/A   Clear
12:15 PM 71.6 °F 23.0 °F 16% 30.03 in 10.0 mi NNE 9.2 mph - N/A   Clear
12:35 PM 71.6 °F 21.2 °F 15% 30.02 in 10.0 mi NNE 8.1 mph - N/A   Clear
12:55 PM 71.6 °F 21.2 °F 15% 30.02 in 10.0 mi NE 9.2 mph - N/A   Clear
1:35 PM 73.4 °F 21.2 °F 14% 30.00 in 10.0 mi North 8.1 mph - N/A   Clear
2:15 PM 73.4 °F 21.2 °F 14% 29.98 in 10.0 mi NE 5.8 mph - N/A   Clear
2:35 PM 73.4 °F 21.2 °F 14% 29.98 in 10.0 mi NNW 6.9 mph - N/A   Clear
2:55 PM 73.4 °F 21.2 °F 14% 29.98 in 10.0 mi NNE 5.8 mph - N/A   Clear
3:35 PM 73.4 °F 21.2 °F 14% 29.97 in 10.0 mi NNE 6.9 mph - N/A   Clear
3:55 PM 73.4 °F 21.2 °F 14% 29.97 in 10.0 mi North 6.9 mph - N/A   Clear
4:15 PM 73.4 °F 23.0 °F 15% 29.97 in 10.0 mi North 5.8 mph - N/A   Clear
4:35 PM 73.4 °F 26.6 °F 18% 29.96 in 10.0 mi NNW 5.8 mph - N/A   Clear
5:15 PM 73.4 °F 24.8 °F 16% 29.96 in 10.0 mi NNW 6.9 mph - N/A   Clear
5:35 PM 71.6 °F 23.0 °F 16% 29.96 in 10.0 mi NW 6.9 mph - N/A   Clear
5:55 PM 71.6 °F 26.6 °F 19% 29.96 in 10.0 mi NW 5.8 mph - N/A   Clear
6:15 PM 69.8 °F 26.6 °F 20% 29.96 in 10.0 mi NW 3.5 mph - N/A   Clear
6:35 PM 68.0 °F 30.2 °F 24% 29.96 in 10.0 mi NNW 4.6 mph - N/A   Clear
6:55 PM 64.4 °F 32.0 °F 30% 29.96 in 10.0 mi NNW 4.6 mph - N/A   Clear
7:15 PM 64.4 °F 30.2 °F 28% 29.97 in 10.0 mi North 4.6 mph - N/A   Clear
7:35 PM 62.6 °F 30.2 °F 30% 29.98 in 10.0 mi North 4.6 mph - N/A   Clear
7:55 PM 60.8 °F 30.2 °F 31% 29.98 in 10.0 mi North 5.8 mph - N/A   Clear
8:15 PM 60.8 °F 30.2 °F 31% 29.99 in 10.0 mi North 4.6 mph - N/A   Clear
8:35 PM 60.8 °F 32.0 °F 34% 30.00 in 10.0 mi North 4.6 mph - N/A   Clear
8:55 PM 57.2 °F 33.8 °F 41% 30.00 in 10.0 mi North 4.6 mph - N/A   Clear
9:15 PM 53.6 °F 35.6 °F 51% 30.00 in 10.0 mi NNW 5.8 mph - N/A   Clear
9:35 PM 55.4 °F 33.8 °F 44% 30.01 in 10.0 mi NNW 4.6 mph - N/A   Clear
9:55 PM 55.4 °F 33.8 °F 44% 30.01 in 10.0 mi NNW 5.8 mph - N/A   Clear
10:15 PM 53.6 °F 35.6 °F 51% 30.01 in 10.0 mi NNW 4.6 mph - N/A   Clear
10:35 PM 53.6 °F 33.8 °F 47% 30.02 in 10.0 mi Calm Calm - N/A   Clear